Regional Weather Roundup
Issued by NWS

Home | Current Version | Previous Version | Text Only | Print | Product List | Glossary Off
Versions: 1 2 3 4 5 6 7 8 9 10 11 12 13 14 15 16 17 18 19 20 21 22 23 24 25 26 27 28 29 30 31 32 33 34 35 36 37 38 39 40 41 42 43 44 45 46 47 48 49 50

000
ASUS45 KTFX 071510
RWRMT
MONTANA REGIONAL WEATHER ROUNDUP
NATIONAL WEATHER SERVICE GREAT FALLS MT
900 AM MDT TUE JUL 07 2015

NOTE: "FAIR" INDICATES FEW OR NO CLOUDS BELOW 12000 FEET WITH NO
SIGNIFICANT WEATHER AND/OR OBSTRUCTIONS TO VISIBILITY.

MTZ001>007-043-071600-
WEST OF THE DIVIDE

CITY           SKY/WX    TMP DP  RH WIND       PRES   REMARKS
KALISPELL      LGT RAIN  58  55  90 NE6       30.11R FOG
MISSOULA       SUNNY     62  37  39 VRB3      30.08S
BUTTE          SUNNY     58  32  37 CALM      30.18S
MULLAN PASS    MOSUNNY   63  41  44 VRB3      30.17S
DEER LODGE       N/A     61  37  41 CALM      30.16F
EUREKA           N/A     59  55  88 E3        30.14R
HAMILTON         N/A     66  41  39 S10       30.05F
LIBBY            N/A     59  54  82 CALM      30.13S
PLAINS           N/A     68  47  46 CALM      30.05R
RONAN            N/A     64  50  60 N13       30.13R
$$

MTZ008-052>055-071600-
SOUTHWEST MONTANA

CITY           SKY/WX    TMP DP  RH WIND       PRES   REMARKS
BOZEMAN        SUNNY     63  49  60 CALM      30.13S
DILLON         SUNNY     62  50  64 SW6       30.15F
W YELLOWSTONE  SUNNY     57  50  77 CALM      30.24S
THREE FORKS      N/A     63  -1   7 CALM      30.11S
$$

MTZ009-010-012-014-046-048-049-054-071600-
EAST SLOPES AND CENTRAL MONTANA

CITY           SKY/WX    TMP DP  RH WIND       PRES   REMARKS
CUT BANK       CLOUDY    60  50  69 N14       30.15S
GREAT FALLS    MOSUNNY   59  51  75 W6        30.14R
MALMSTROM AFB  MOSUNNY   59  53  80 SW8       30.13F
HELENA         MOSUNNY   62  48  60 W6        30.13R
CONRAD           N/A     59  55  86 W10       30.15R
$$

MTZ011-013-016-021-045-047-050-051-071600-
NORTH CENTRAL MONTANA

CITY           SKY/WX    TMP DP  RH WIND       PRES   REMARKS
HAVRE          PTSUNNY   62  52  69 E3        30.07F
LEWISTOWN      SUNNY     61  50  67 CALM      30.12S
CHINOOK          N/A     64  52  63 NW3       30.08S
FORT BENTON      N/A     59  52  77 SW7       30.12R
$$

MTZ017>020-022>027-061-062-071600-
NORTHEAST MONTANA

CITY           SKY/WX    TMP DP  RH WIND       PRES   REMARKS
GLASGOW        MOSUNNY   64  51  62 SE6       30.06S
JORDAN           N/A     64  51  62 CALM      30.07F
SIDNEY         MOSUNNY   64  54  68 SE9       30.10S
WOLF POINT     MOSUNNY   65  54  67 CALM      30.07F HAZE
MALTA            N/A     66  50  56 CALM      30.02S
PLENTYWOOD       N/A     63  55  77 SE7       30.08F
POPLAR           N/A     64  55  72 CALM      30.08S
SCOBEY           N/A     63  51  64 S3        30.06F
$$

MTZ028>42-056>058-071600-
SOUTHCENTRAL AND SOUTHEAST MONTANA

CITY           SKY/WX    TMP DP  RH WIND       PRES   REMARKS
BAKER          MOSUNNY   64  54  69 SE15      30.11F
BILLINGS       MOSUNNY   61  53  75 SW7       30.10S
LIVINGSTON     SUNNY     62  49  62 N5        30.13F
MILES CITY     SUNNY     65  53  65 VRB5      30.06F
EKALAKA          N/A     67  55  65 SE9       30.07F
FORSYTH          N/A     63  54  72 CALM      30.06S
LAUREL           N/A     62  50  65 CALM      30.08S
ROUNDUP          N/A     62  48  60 S3        30.00S
$$

REGIONAL REPORTS...DAKOTAS

CITY           SKY/WX    TMP DP  RH WIND       PRES   REMARKS
WILLISTON      CLOUDY    65  53  65 S9        30.10F HAZE
MINOT          SUNNY     65  49  56 S13       30.13F
DICKINSON      SUNNY     64  54  69 S13       30.11F HAZE
BEACH          FAIR      63  57  82 S14       30.11F
CROSBY         FAIR      64  59  82 S14       30.10F FOG
BISMARCK       SUNNY     64  53  67 S12       30.17F
GRAND FORKS    SUNNY     64  46  52 W8        30.18F
FARGO          SUNNY     64  45  49 W3        30.21S
BUFFALO SD       N/A     66  55  67 S12       30.05F
RAPID CITY     MOSUNNY   65  59  81 SE12      30.15S
$$

REGIONAL REPORTS...WYOMING/IDAHO/WASHINGTON

CITY           SKY/WX    TMP DP  RH WIND       PRES   REMARKS
GILLETTE       SUNNY     65  55  70 S16G23    30.12F HAZE
SHERIDAN       MOSUNNY   62  54  74 CALM      30.10F
BUFFALO WY     SUNNY     63  53  70 CALM      30.14S
CODY           SUNNY     64  54  68 N3        30.15S
YELLOWSTONE LA   N/A     56  47  71 CALM      30.32S
SALMON         SUNNY     63  46  55 NW3       30.12F
BOISE          CLOUDY    77  50  38 SE10      29.99S
SPOKANE        PTSUNNY   72  49  44 E8        29.98R
$$

REGIONAL REPORTS...ALBERTA

CITY           SKY/WX    TMP DP  RH WIND       PRES   REMARKS
EDMONTON       PTSUNNY   52  39  62 N10       30.19R
CALGARY        MOSUNNY   55  50  82 N15G22    30.19S
LETHBRIDGE     PTSUNNY   59  55  88 SW7       30.14S
MEDICINE HAT   PTSUNNY   66  52  59 NW8       30.09R
WATERTON GATE    N/A     59  48  67 CALM        N/A
CARDSTON         N/A     59  54  82 W3          N/A
MILK RIVER       N/A     61  54  77 NW12        N/A
$$

REGIONAL REPORTS...SASKATCHEWAN

CITY           SKY/WX    TMP DP  RH WIND       PRES   REMARKS
SWIFT CURRENT  CLOUDY    61  48  63 SW9       30.04S
REGINA         PTSUNNY   63  55  77 S5        30.03F
SASKATOON      MOSUNNY   66  52  59 NW12      30.00R
CYPRESS HILLS    N/A     61  45  55 N5          N/A
VAL MARIE        N/A     64  50  59 SW6         N/A
$$


USA.gov is the U.S. government's official web portal to all federal, state and local government web resources and services.